Year,Month,Day,Hour,Minute,Value (Times are PST for temperature in C)
2009,05,23,00,00,10.70
2009,05,23,00,01,10.70
2009,05,23,00,02,10.70
2009,05,23,00,03,10.60
2009,05,23,00,04,10.60
2009,05,23,00,05,10.60
2009,05,23,00,06,10.60
2009,05,23,00,07,10.50
2009,05,23,00,08,10.40
2009,05,23,00,09,10.40
2009,05,23,00,10,10.40
2009,05,23,00,11,10.30
2009,05,23,00,12,10.30
2009,05,23,00,13,10.20
2009,05,23,00,14,10.20
2009,05,23,00,15,10.20
2009,05,23,00,16,10.10
2009,05,23,00,17,10.10
2009,05,23,00,18,10.10
2009,05,23,00,19,10.10
2009,05,23,00,20,10.00
2009,05,23,00,21,9.90
2009,05,23,00,22,9.90
2009,05,23,00,23,9.90
2009,05,23,00,24,9.90
2009,05,23,00,25,9.80
2009,05,23,00,26,9.80
2009,05,23,00,27,9.70
2009,05,23,00,28,9.70
2009,05,23,00,29,9.70
2009,05,23,00,30,9.70
2009,05,23,00,31,9.70
2009,05,23,00,32,9.70
2009,05,23,00,33,9.70
2009,05,23,00,34,9.70
2009,05,23,00,35,9.70
2009,05,23,00,36,9.70
2009,05,23,00,37,9.70
2009,05,23,00,38,9.60
2009,05,23,00,39,9.60
2009,05,23,00,40,9.60
2009,05,23,00,41,9.60
2009,05,23,00,42,9.60
2009,05,23,00,43,9.60
2009,05,23,00,44,9.60
2009,05,23,00,45,9.60
2009,05,23,00,46,9.60
2009,05,23,00,47,9.60
2009,05,23,00,48,9.60
2009,05,23,00,49,9.60
2009,05,23,00,50,9.60
2009,05,23,00,51,9.60
2009,05,23,00,52,9.60
2009,05,23,00,53,9.60
2009,05,23,00,54,9.60
2009,05,23,00,55,9.60
2009,05,23,00,56,9.60
2009,05,23,00,57,9.50
2009,05,23,00,58,9.50
2009,05,23,00,59,9.50
2009,05,23,01,00,9.50
2009,05,23,01,01,9.50
2009,05,23,01,02,9.40
2009,05,23,01,03,9.40
2009,05,23,01,04,9.40
2009,05,23,01,05,9.40
2009,05,23,01,06,9.30
2009,05,23,01,07,9.30
2009,05,23,01,08,9.30
2009,05,23,01,09,9.20
2009,05,23,01,10,9.20
2009,05,23,01,11,9.20
2009,05,23,01,12,9.20
2009,05,23,01,13,9.20
2009,05,23,01,14,9.10
2009,05,23,01,15,9.10
2009,05,23,01,16,9.10
2009,05,23,01,17,9.10
2009,05,23,01,18,9.10
2009,05,23,01,19,9.00
2009,05,23,01,20,9.00
2009,05,23,01,21,9.00
2009,05,23,01,22,9.00
2009,05,23,01,23,9.00
2009,05,23,01,24,9.00
2009,05,23,01,25,8.90
2009,05,23,01,26,8.90
2009,05,23,01,27,8.90
2009,05,23,01,28,8.90
2009,05,23,01,29,8.90
2009,05,23,01,30,8.90
2009,05,23,01,31,8.90
2009,05,23,01,32,8.80
2009,05,23,01,33,8.80
2009,05,23,01,34,8.80
2009,05,23,01,35,8.70
2009,05,23,01,36,8.70
2009,05,23,01,37,8.70
2009,05,23,01,38,8.70
2009,05,23,01,39,8.70
2009,05,23,01,40,8.70
2009,05,23,01,41,8.70
2009,05,23,01,42,8.70
2009,05,23,01,43,8.70
2009,05,23,01,44,8.60
2009,05,23,01,45,8.60
2009,05,23,01,46,8.60
2009,05,23,01,47,8.60
2009,05,23,01,48,8.50
2009,05,23,01,49,8.50
2009,05,23,01,50,8.50
2009,05,23,01,51,8.50
2009,05,23,01,52,8.40
2009,05,23,01,53,8.40
2009,05,23,01,54,8.40
2009,05,23,01,55,8.40
2009,05,23,01,56,8.30
2009,05,23,01,57,8.30
2009,05,23,01,58,8.30
2009,05,23,01,59,8.30
2009,05,23,02,00,8.30
2009,05,23,02,01,8.20
2009,05,23,02,02,8.20
2009,05,23,02,03,8.20
2009,05,23,02,04,8.20
2009,05,23,02,05,8.20
2009,05,23,02,06,8.20
2009,05,23,02,07,8.20
2009,05,23,02,08,8.20
2009,05,23,02,09,8.10
2009,05,23,02,10,8.10
2009,05,23,02,11,8.10
2009,05,23,02,12,8.10
2009,05,23,02,13,8.00
2009,05,23,02,14,8.00
2009,05,23,02,15,8.00
2009,05,23,02,16,8.00
2009,05,23,02,17,8.00
2009,05,23,02,18,7.90
2009,05,23,02,19,7.90
2009,05,23,02,20,7.90
2009,05,23,02,21,7.90
2009,05,23,02,22,7.90
2009,05,23,02,23,7.90
2009,05,23,02,24,7.80
2009,05,23,02,25,7.80
2009,05,23,02,26,7.80
2009,05,23,02,27,7.80
2009,05,23,02,28,7.80
2009,05,23,02,29,7.80
2009,05,23,02,30,7.80
2009,05,23,02,31,7.80
2009,05,23,02,32,7.80
2009,05,23,02,33,7.80
2009,05,23,02,34,7.80
2009,05,23,02,35,7.70
2009,05,23,02,36,7.70
2009,05,23,02,37,7.70
2009,05,23,02,38,7.70
2009,05,23,02,39,7.70
2009,05,23,02,40,7.70
2009,05,23,02,41,7.60
2009,05,23,02,42,7.60
2009,05,23,02,43,7.60
2009,05,23,02,44,7.60
2009,05,23,02,45,7.50
2009,05,23,02,46,7.50
2009,05,23,02,47,7.50
2009,05,23,02,48,7.50
2009,05,23,02,49,7.50
2009,05,23,02,50,7.40
2009,05,23,02,51,7.40
2009,05,23,02,52,7.40
2009,05,23,02,53,7.40
2009,05,23,02,54,7.40
2009,05,23,02,55,7.40
2009,05,23,02,56,7.40
2009,05,23,02,57,7.40
2009,05,23,02,58,7.40
2009,05,23,02,59,7.40
2009,05,23,03,00,7.40
2009,05,23,03,01,7.40
2009,05,23,03,02,7.40
2009,05,23,03,03,7.30
2009,05,23,03,04,7.30
2009,05,23,03,05,7.30
2009,05,23,03,06,7.30
2009,05,23,03,07,7.30
2009,05,23,03,08,7.30
2009,05,23,03,09,7.30
2009,05,23,03,10,7.30
2009,05,23,03,11,7.30
2009,05,23,03,12,7.30
2009,05,23,03,13,7.30
2009,05,23,03,14,7.20
2009,05,23,03,15,7.20
2009,05,23,03,16,7.20
2009,05,23,03,17,7.20
2009,05,23,03,18,7.20
2009,05,23,03,19,7.20
2009,05,23,03,20,7.10
2009,05,23,03,21,7.10
2009,05,23,03,22,7.10
2009,05,23,03,23,7.10
2009,05,23,03,24,7.00
2009,05,23,03,25,7.00
2009,05,23,03,26,7.00
2009,05,23,03,27,7.00
2009,05,23,03,28,7.00
2009,05,23,03,29,7.00
2009,05,23,03,30,7.00
2009,05,23,03,31,6.90
2009,05,23,03,32,6.90
2009,05,23,03,33,6.90
2009,05,23,03,34,6.90
2009,05,23,03,35,6.90
2009,05,23,03,36,6.80
2009,05,23,03,37,6.80
2009,05,23,03,38,6.80
2009,05,23,03,39,6.80
2009,05,23,03,40,6.80
2009,05,23,03,41,6.80
2009,05,23,03,42,6.80
2009,05,23,03,43,6.80
2009,05,23,03,44,6.80
2009,05,23,03,45,6.80
2009,05,23,03,46,6.70
2009,05,23,03,47,6.70
2009,05,23,03,48,6.70
2009,05,23,03,49,6.70
2009,05,23,03,50,6.70
2009,05,23,03,51,6.70
2009,05,23,03,52,6.60
2009,05,23,03,53,6.60
2009,05,23,03,54,6.60
2009,05,23,03,55,6.60
2009,05,23,03,56,6.60
2009,05,23,03,57,6.60
2009,05,23,03,58,6.60
2009,05,23,03,59,6.60
2009,05,23,04,00,6.60
2009,05,23,04,01,6.60
2009,05,23,04,02,6.60
2009,05,23,04,03,6.50
2009,05,23,04,04,6.40
2009,05,23,04,05,6.40
2009,05,23,04,06,6.40
2009,05,23,04,07,6.40
2009,05,23,04,08,6.40
2009,05,23,04,09,6.40
2009,05,23,04,10,6.40
2009,05,23,04,11,6.40
2009,05,23,04,12,6.40
2009,05,23,04,13,6.40
2009,05,23,04,14,6.40
2009,05,23,04,15,6.40
2009,05,23,04,16,6.40
2009,05,23,04,17,6.40
2009,05,23,04,18,6.40
2009,05,23,04,19,6.40
2009,05,23,04,20,6.40
2009,05,23,04,21,6.40
2009,05,23,04,22,6.40
2009,05,23,04,23,6.40
2009,05,23,04,24,6.40
2009,05,23,04,25,6.40
2009,05,23,04,26,6.40
2009,05,23,04,27,6.40
2009,05,23,04,28,6.40
2009,05,23,04,29,6.40
2009,05,23,04,30,6.40
2009,05,23,04,31,6.40
2009,05,23,04,32,6.30
2009,05,23,04,33,6.30
2009,05,23,04,34,6.30
2009,05,23,04,35,6.30
2009,05,23,04,36,6.30
2009,05,23,04,37,6.30
2009,05,23,04,38,6.30
2009,05,23,04,39,6.20
2009,05,23,04,40,6.20
2009,05,23,04,41,6.20
2009,05,23,04,42,6.20
2009,05,23,04,43,6.20
2009,05,23,04,44,6.20
2009,05,23,04,45,6.20
2009,05,23,04,46,6.20
2009,05,23,04,47,6.20
2009,05,23,04,48,6.20
2009,05,23,04,49,6.20
2009,05,23,04,50,6.20
2009,05,23,04,51,6.20
2009,05,23,04,52,6.20
2009,05,23,04,53,6.20
2009,05,23,04,54,6.20
2009,05,23,04,55,6.20
2009,05,23,04,56,6.20
2009,05,23,04,57,6.20
2009,05,23,04,58,6.20
2009,05,23,04,59,6.20
2009,05,23,05,00,6.20
2009,05,23,05,01,6.10
2009,05,23,05,02,6.10
2009,05,23,05,03,6.10
2009,05,23,05,04,6.10
2009,05,23,05,05,6.10
2009,05,23,05,06,6.10
2009,05,23,05,07,6.10
2009,05,23,05,08,6.00
2009,05,23,05,09,6.00
2009,05,23,05,10,6.00
2009,05,23,05,11,6.00
2009,05,23,05,12,6.00
2009,05,23,05,13,6.00
2009,05,23,05,14,6.00
2009,05,23,05,15,5.90
2009,05,23,05,16,5.90
2009,05,23,05,17,5.90
2009,05,23,05,18,5.90
2009,05,23,05,19,5.90
2009,05,23,05,20,5.90
2009,05,23,05,21,5.90
2009,05,23,05,22,5.90
2009,05,23,05,23,5.90
2009,05,23,05,24,5.90
2009,05,23,05,25,5.80
2009,05,23,05,26,5.80
2009,05,23,05,27,5.80
2009,05,23,05,28,5.80
2009,05,23,05,29,5.80
2009,05,23,05,30,5.80
2009,05,23,05,31,5.70
2009,05,23,05,32,5.70
2009,05,23,05,33,5.70
2009,05,23,05,34,5.70
2009,05,23,05,35,5.70
2009,05,23,05,36,5.70
2009,05,23,05,37,5.70
2009,05,23,05,38,5.70
2009,05,23,05,39,5.70
2009,05,23,05,40,5.70
2009,05,23,05,41,5.80
2009,05,23,05,42,5.80
2009,05,23,05,43,5.80
2009,05,23,05,44,5.80
2009,05,23,05,45,5.80
2009,05,23,05,46,5.80
2009,05,23,05,47,5.80
2009,05,23,05,48,5.80
2009,05,23,05,49,5.80
2009,05,23,05,50,5.80
2009,05,23,05,51,5.80
2009,05,23,05,52,5.80
2009,05,23,05,53,5.80
2009,05,23,05,54,5.80
2009,05,23,05,55,5.80
2009,05,23,05,56,5.80
2009,05,23,05,57,5.80
2009,05,23,05,58,5.80
2009,05,23,05,59,5.80
2009,05,23,06,00,5.90
2009,05,23,06,01,5.90
2009,05,23,06,02,5.90
2009,05,23,06,03,5.90
2009,05,23,06,04,5.90
2009,05,23,06,05,5.90
2009,05,23,06,06,6.00
2009,05,23,06,07,6.00
2009,05,23,06,08,6.00
2009,05,23,06,09,6.00
2009,05,23,06,10,6.00
2009,05,23,06,11,6.10
2009,05,23,06,12,6.10
2009,05,23,06,13,6.20
2009,05,23,06,14,6.20
2009,05,23,06,15,6.20
2009,05,23,06,16,6.20
2009,05,23,06,17,6.30
2009,05,23,06,18,6.40
2009,05,23,06,19,6.40
2009,05,23,06,20,6.40
2009,05,23,06,21,6.50
2009,05,23,06,22,6.60
2009,05,23,06,23,6.60
2009,05,23,06,24,6.60
2009,05,23,06,25,6.70
2009,05,23,06,26,6.70
2009,05,23,06,27,6.70
2009,05,23,06,28,6.80
2009,05,23,06,29,6.80
2009,05,23,06,30,6.80
2009,05,23,06,31,6.90
2009,05,23,06,32,7.00
2009,05,23,06,33,7.00
2009,05,23,06,34,7.10
2009,05,23,06,35,7.20
2009,05,23,06,36,7.30
2009,05,23,06,37,7.30
2009,05,23,06,38,7.30
2009,05,23,06,39,7.40
2009,05,23,06,40,7.50
2009,05,23,06,41,7.60
2009,05,23,06,42,7.70
2009,05,23,06,43,7.80
2009,05,23,06,44,7.80
2009,05,23,06,45,7.90
2009,05,23,06,46,7.90
2009,05,23,06,47,8.00
2009,05,23,06,48,8.00
2009,05,23,06,49,8.10
2009,05,23,06,50,8.10
2009,05,23,06,51,8.20
2009,05,23,06,52,8.20
2009,05,23,06,53,8.30
2009,05,23,06,54,8.40
2009,05,23,06,55,8.50
2009,05,23,06,56,8.60
2009,05,23,06,57,8.70
2009,05,23,06,58,8.80
2009,05,23,06,59,8.90
2009,05,23,07,00,9.00
2009,05,23,07,01,9.20
2009,05,23,07,02,9.20
2009,05,23,07,03,9.30
2009,05,23,07,04,9.40
2009,05,23,07,05,9.50
2009,05,23,07,06,9.60
2009,05,23,07,07,9.70
2009,05,23,07,08,9.80
2009,05,23,07,09,9.80
2009,05,23,07,10,9.90
2009,05,23,07,11,9.90
2009,05,23,07,12,9.90
2009,05,23,07,13,10.00
2009,05,23,07,14,10.10
2009,05,23,07,15,10.10
2009,05,23,07,16,10.20
2009,05,23,07,17,10.20
2009,05,23,07,18,10.30
2009,05,23,07,19,10.40
2009,05,23,07,20,10.50
2009,05,23,07,21,10.60
2009,05,23,07,22,10.60
2009,05,23,07,23,10.70
2009,05,23,07,24,10.70
2009,05,23,07,25,10.80
2009,05,23,07,26,10.90
2009,05,23,07,27,10.90
2009,05,23,07,28,11.00
2009,05,23,07,29,11.10
2009,05,23,07,30,11.20
2009,05,23,07,31,11.20
2009,05,23,07,32,11.30
2009,05,23,07,33,11.40
2009,05,23,07,34,11.60
2009,05,23,07,35,11.70
2009,05,23,07,36,11.80
2009,05,23,07,37,11.90
2009,05,23,07,38,12.00
2009,05,23,07,39,12.10
2009,05,23,07,40,12.20
2009,05,23,07,41,12.30
2009,05,23,07,42,12.30
2009,05,23,07,43,12.30
2009,05,23,07,44,12.40
2009,05,23,07,45,12.40
2009,05,23,07,46,12.50
2009,05,23,07,47,12.50
2009,05,23,07,48,12.60
2009,05,23,07,49,12.60
2009,05,23,07,50,12.70
2009,05,23,07,51,12.70
2009,05,23,07,52,12.80
2009,05,23,07,53,12.80
2009,05,23,07,54,12.90
2009,05,23,07,55,13.00
2009,05,23,07,56,13.10
2009,05,23,07,57,13.10
2009,05,23,07,58,13.20
2009,05,23,07,59,13.30
2009,05,23,08,00,13.30
2009,05,23,08,01,13.40
2009,05,23,08,02,13.50
2009,05,23,08,03,13.60
2009,05,23,08,04,13.60
2009,05,23,08,05,13.50
2009,05,23,08,06,13.50
2009,05,23,08,07,13.50
2009,05,23,08,08,13.50
2009,05,23,08,09,13.50
2009,05,23,08,10,13.60
2009,05,23,08,11,13.70
2009,05,23,08,12,13.70
2009,05,23,08,13,13.80
2009,05,23,08,14,13.90
2009,05,23,08,15,13.90
2009,05,23,08,16,13.90
2009,05,23,08,17,13.90
2009,05,23,08,18,13.90
2009,05,23,08,19,14.00
2009,05,23,08,20,14.00
2009,05,23,08,21,14.00
2009,05,23,08,22,13.90
2009,05,23,08,23,13.90
2009,05,23,08,24,14.00
2009,05,23,08,25,14.00
2009,05,23,08,26,13.90
2009,05,23,08,27,13.70
2009,05,23,08,28,13.70
2009,05,23,08,29,13.60
2009,05,23,08,30,13.70
2009,05,23,08,31,13.70
2009,05,23,08,32,13.60
2009,05,23,08,33,13.60
2009,05,23,08,34,13.70
2009,05,23,08,35,13.70
2009,05,23,08,36,13.70
2009,05,23,08,37,13.70
2009,05,23,08,38,13.70
2009,05,23,08,39,13.60
2009,05,23,08,40,13.60
2009,05,23,08,41,13.60
2009,05,23,08,42,13.60
2009,05,23,08,43,13.70
2009,05,23,08,44,13.70
2009,05,23,08,45,13.70
2009,05,23,08,46,13.70
2009,05,23,08,47,13.60
2009,05,23,08,48,13.50
2009,05,23,08,49,13.30
2009,05,23,08,50,13.20
2009,05,23,08,51,13.20
2009,05,23,08,52,13.30
2009,05,23,08,53,13.30
2009,05,23,08,54,13.30
2009,05,23,08,55,13.40
2009,05,23,08,56,13.50
2009,05,23,08,57,13.50
2009,05,23,08,58,13.60
2009,05,23,08,59,13.70
2009,05,23,09,00,13.70
2009,05,23,09,01,13.60
2009,05,23,09,02,13.40
2009,05,23,09,03,13.40
2009,05,23,09,04,13.40
2009,05,23,09,05,13.50
2009,05,23,09,06,13.50
2009,05,23,09,07,13.40
2009,05,23,09,08,13.30
2009,05,23,09,09,13.30
2009,05,23,09,10,13.40
2009,05,23,09,11,13.50
2009,05,23,09,12,13.60
2009,05,23,09,13,13.70
2009,05,23,09,14,13.90
2009,05,23,09,15,14.00
2009,05,23,09,16,14.10
2009,05,23,09,17,14.20
2009,05,23,09,18,14.30
2009,05,23,09,19,14.30
2009,05,23,09,20,14.20
2009,05,23,09,21,14.10
2009,05,23,09,22,14.00
2009,05,23,09,23,13.90
2009,05,23,09,24,13.90
2009,05,23,09,25,13.70
2009,05,23,09,26,13.60
2009,05,23,09,27,13.50
2009,05,23,09,28,13.30
2009,05,23,09,29,13.30
2009,05,23,09,30,13.30
2009,05,23,09,31,13.30
2009,05,23,09,32,13.30
2009,05,23,09,33,13.30
2009,05,23,09,34,13.40
2009,05,23,09,35,13.40
2009,05,23,09,36,13.40
2009,05,23,09,37,13.40
2009,05,23,09,38,13.40
2009,05,23,09,39,13.50
2009,05,23,09,40,13.60
2009,05,23,09,41,13.70
2009,05,23,09,42,13.80
2009,05,23,09,43,14.00
2009,05,23,09,44,14.10
2009,05,23,09,45,14.20
2009,05,23,09,46,14.20
2009,05,23,09,47,14.20
2009,05,23,09,48,14.20
2009,05,23,09,49,14.20
2009,05,23,09,50,14.20
2009,05,23,09,51,14.10
2009,05,23,09,52,14.10
2009,05,23,09,53,14.10
2009,05,23,09,54,14.10
2009,05,23,09,55,14.00
2009,05,23,09,56,13.80
2009,05,23,09,57,13.70
2009,05,23,09,58,13.70
2009,05,23,09,59,13.70
2009,05,23,10,00,13.80
2009,05,23,10,01,13.80
2009,05,23,10,02,13.60
2009,05,23,10,03,13.60
2009,05,23,10,04,13.50
2009,05,23,10,05,13.60
2009,05,23,10,06,13.70
2009,05,23,10,07,13.90
2009,05,23,10,08,14.00
2009,05,23,10,09,14.10
2009,05,23,10,10,14.20
2009,05,23,10,11,14.30
2009,05,23,10,12,14.30
2009,05,23,10,13,14.20
2009,05,23,10,14,14.30
2009,05,23,10,15,14.40
2009,05,23,10,16,14.50
2009,05,23,10,17,14.70
2009,05,23,10,18,14.70
2009,05,23,10,19,14.80
2009,05,23,10,20,14.90
2009,05,23,10,21,14.90
2009,05,23,10,22,15.00
2009,05,23,10,23,15.10
2009,05,23,10,24,15.20
2009,05,23,10,25,15.30
2009,05,23,10,26,15.20
2009,05,23,10,27,15.00
2009,05,23,10,28,14.90
2009,05,23,10,29,14.80
2009,05,23,10,30,14.80
2009,05,23,10,31,14.80
2009,05,23,10,32,14.80
2009,05,23,10,33,14.90
2009,05,23,10,34,15.10
2009,05,23,10,35,15.20
2009,05,23,10,36,15.30
2009,05,23,10,37,15.30
2009,05,23,10,38,15.30
2009,05,23,10,39,15.40
2009,05,23,10,40,15.40
2009,05,23,10,41,15.50
2009,05,23,10,42,15.60
2009,05,23,10,43,15.60
2009,05,23,10,44,15.70
2009,05,23,10,45,15.40
2009,05,23,10,46,15.10
2009,05,23,10,47,14.90
2009,05,23,10,48,14.90
2009,05,23,10,49,14.90
2009,05,23,10,50,14.90
2009,05,23,10,51,15.00
2009,05,23,10,52,15.10
2009,05,23,10,53,15.20
2009,05,23,10,54,15.20
2009,05,23,10,55,15.30
2009,05,23,10,56,15.40
2009,05,23,10,57,15.50
2009,05,23,10,58,15.60
2009,05,23,10,59,15.50
2009,05,23,11,00,15.30
2009,05,23,11,01,15.40
2009,05,23,11,02,15.40
2009,05,23,11,03,15.40
2009,05,23,11,04,15.40
2009,05,23,11,05,15.30
2009,05,23,11,06,15.40
2009,05,23,11,07,15.50
2009,05,23,11,08,15.70
2009,05,23,11,09,15.80
2009,05,23,11,10,16.00
2009,05,23,11,11,16.00
2009,05,23,11,12,15.90
2009,05,23,11,13,15.90
2009,05,23,11,14,16.00
2009,05,23,11,15,16.10
2009,05,23,11,16,16.20
2009,05,23,11,17,16.40
2009,05,23,11,18,16.60
2009,05,23,11,19,16.70
2009,05,23,11,20,16.70
2009,05,23,11,21,16.70
2009,05,23,11,22,16.80
2009,05,23,11,23,16.80
2009,05,23,11,24,16.70
2009,05,23,11,25,16.40
2009,05,23,11,26,16.30
2009,05,23,11,27,16.30
2009,05,23,11,28,16.20
2009,05,23,11,29,16.10
2009,05,23,11,30,16.10
2009,05,23,11,31,16.10
2009,05,23,11,32,16.00
2009,05,23,11,33,16.00
2009,05,23,11,34,16.10
2009,05,23,11,35,16.10
2009,05,23,11,36,16.20
2009,05,23,11,37,16.40
2009,05,23,11,38,16.40
2009,05,23,11,39,16.10
2009,05,23,11,40,15.80
2009,05,23,11,41,15.80
2009,05,23,11,42,15.60
2009,05,23,11,43,15.50
2009,05,23,11,44,15.40
2009,05,23,11,45,15.50
2009,05,23,11,46,15.60
2009,05,23,11,47,15.50
2009,05,23,11,48,15.30
2009,05,23,11,49,15.30
2009,05,23,11,50,15.30
2009,05,23,11,51,15.30
2009,05,23,11,52,15.30
2009,05,23,11,53,15.30
2009,05,23,11,54,15.20
2009,05,23,11,55,15.20
2009,05,23,11,56,15.20
2009,05,23,11,57,15.20
2009,05,23,11,58,15.20
2009,05,23,11,59,15.20
2009,05,23,12,00,15.00
2009,05,23,12,01,14.90
2009,05,23,12,02,15.00
2009,05,23,12,03,15.10
2009,05,23,12,04,15.20
2009,05,23,12,05,15.30
2009,05,23,12,06,15.30
2009,05,23,12,07,15.30
2009,05,23,12,08,15.40
2009,05,23,12,09,15.50
2009,05,23,12,10,15.50
2009,05,23,12,11,15.60
2009,05,23,12,12,15.70
2009,05,23,12,13,15.70
2009,05,23,12,14,15.70
2009,05,23,12,15,15.70
2009,05,23,12,16,15.50
2009,05,23,12,17,15.50
2009,05,23,12,18,15.60
2009,05,23,12,19,15.60
2009,05,23,12,20,15.60
2009,05,23,12,21,15.80
2009,05,23,12,22,15.90
2009,05,23,12,23,16.00
2009,05,23,12,24,16.10
2009,05,23,12,25,16.40
2009,05,23,12,26,16.60
2009,05,23,12,27,16.50
2009,05,23,12,28,16.30
2009,05,23,12,29,16.30
2009,05,23,12,30,16.20
2009,05,23,12,31,16.10
2009,05,23,12,32,16.10
2009,05,23,12,33,16.20
2009,05,23,12,34,16.30
2009,05,23,12,35,16.30
2009,05,23,12,36,16.20
2009,05,23,12,37,16.10
2009,05,23,12,38,16.10
2009,05,23,12,39,16.00
2009,05,23,12,40,16.10
2009,05,23,12,41,16.20
2009,05,23,12,42,16.10
2009,05,23,12,43,15.90
2009,05,23,12,44,15.80
2009,05,23,12,45,15.90
2009,05,23,12,46,15.80
2009,05,23,12,47,15.60
2009,05,23,12,48,15.50
2009,05,23,12,49,15.50
2009,05,23,12,50,15.40
2009,05,23,12,51,15.30
2009,05,23,12,52,15.30
2009,05,23,12,53,15.40
2009,05,23,12,54,15.30
2009,05,23,12,55,15.40
2009,05,23,12,56,15.30
2009,05,23,12,57,15.30
2009,05,23,12,58,15.30
2009,05,23,12,59,15.30
2009,05,23,13,00,15.30
2009,05,23,13,01,15.40
2009,05,23,13,02,15.50
2009,05,23,13,03,15.60
2009,05,23,13,04,15.80
2009,05,23,13,05,15.80
2009,05,23,13,06,15.80
2009,05,23,13,07,15.80
2009,05,23,13,08,15.90
2009,05,23,13,09,16.00
2009,05,23,13,10,16.10
2009,05,23,13,11,16.10
2009,05,23,13,12,16.10
2009,05,23,13,13,16.10
2009,05,23,13,14,16.10
2009,05,23,13,15,16.10
2009,05,23,13,16,16.10
2009,05,23,13,17,16.10
2009,05,23,13,18,16.10
2009,05,23,13,19,16.10
2009,05,23,13,20,16.10
2009,05,23,13,21,15.90
2009,05,23,13,22,15.80
2009,05,23,13,23,15.70
2009,05,23,13,24,15.80
2009,05,23,13,25,15.80
2009,05,23,13,26,15.80
2009,05,23,13,27,15.80
2009,05,23,13,28,15.80
2009,05,23,13,29,15.80
2009,05,23,13,30,15.80
2009,05,23,13,31,15.90
2009,05,23,13,32,16.00
2009,05,23,13,33,16.10
2009,05,23,13,34,16.10
2009,05,23,13,35,16.20
2009,05,23,13,36,16.30
2009,05,23,13,37,16.40
2009,05,23,13,38,16.40
2009,05,23,13,39,16.30
2009,05,23,13,40,16.30
2009,05,23,13,41,16.40
2009,05,23,13,42,16.40
2009,05,23,13,43,16.50
2009,05,23,13,44,16.70
2009,05,23,13,45,16.80
2009,05,23,13,46,17.00
2009,05,23,13,47,17.00
2009,05,23,13,48,17.00
2009,05,23,13,49,17.00
2009,05,23,13,50,17.00
2009,05,23,13,51,17.00
2009,05,23,13,52,16.90
2009,05,23,13,53,16.70
2009,05,23,13,54,16.50
2009,05,23,13,55,16.30
2009,05,23,13,56,16.30
2009,05,23,13,57,16.40
2009,05,23,13,58,16.30
2009,05,23,13,59,16.40
2009,05,23,14,00,16.60
2009,05,23,14,01,16.80
2009,05,23,14,02,16.80
2009,05,23,14,03,16.70
2009,05,23,14,04,16.70
2009,05,23,14,05,16.60
2009,05,23,14,06,16.60
2009,05,23,14,07,16.40
2009,05,23,14,08,16.40
2009,05,23,14,09,16.40
2009,05,23,14,10,16.40
2009,05,23,14,11,16.40
2009,05,23,14,12,16.50
2009,05,23,14,13,16.60
2009,05,23,14,14,16.80
2009,05,23,14,15,16.90
2009,05,23,14,16,16.90
2009,05,23,14,17,17.00
2009,05,23,14,18,17.20
2009,05,23,14,19,17.30
2009,05,23,14,20,17.30
2009,05,23,14,21,17.30
2009,05,23,14,22,17.30
2009,05,23,14,23,17.30
2009,05,23,14,24,17.40
2009,05,23,14,25,17.40
2009,05,23,14,26,17.30
2009,05,23,14,27,17.20
2009,05,23,14,28,17.30
2009,05,23,14,29,17.20
2009,05,23,14,30,17.20
2009,05,23,14,31,17.20
2009,05,23,14,32,17.10
2009,05,23,14,33,17.10
2009,05,23,14,34,17.20
2009,05,23,14,35,17.20
2009,05,23,14,36,17.20
2009,05,23,14,37,17.30
2009,05,23,14,38,17.30
2009,05,23,14,39,17.40
2009,05,23,14,40,17.50
2009,05,23,14,41,17.60
2009,05,23,14,42,17.80
2009,05,23,14,43,17.80
2009,05,23,14,44,17.80
2009,05,23,14,45,17.80
2009,05,23,14,46,17.80
2009,05,23,14,47,17.90
2009,05,23,14,48,18.00
2009,05,23,14,49,18.10
2009,05,23,14,50,18.10
2009,05,23,14,51,18.10
2009,05,23,14,52,18.10
2009,05,23,14,53,18.10
2009,05,23,14,54,18.10
2009,05,23,14,55,18.20
2009,05,23,14,56,18.30
2009,05,23,14,57,18.50
2009,05,23,14,58,18.70
2009,05,23,14,59,18.70
2009,05,23,15,00,18.70
2009,05,23,15,01,18.80
2009,05,23,15,02,18.90
2009,05,23,15,03,18.90
2009,05,23,15,04,19.10
2009,05,23,15,05,19.20
2009,05,23,15,06,19.40
2009,05,23,15,07,19.50
2009,05,23,15,08,19.70
2009,05,23,15,09,19.90
2009,05,23,15,10,20.10
2009,05,23,15,11,20.30
2009,05,23,15,12,20.60
2009,05,23,15,13,20.80
2009,05,23,15,14,20.90
2009,05,23,15,15,21.00
2009,05,23,15,16,20.90
2009,05,23,15,17,20.90
2009,05,23,15,18,20.90
2009,05,23,15,19,20.90
2009,05,23,15,20,20.80
2009,05,23,15,21,20.70
2009,05,23,15,22,20.70
2009,05,23,15,23,20.80
2009,05,23,15,24,20.80
2009,05,23,15,25,20.90
2009,05,23,15,26,20.90
2009,05,23,15,27,20.90
2009,05,23,15,28,20.90
2009,05,23,15,29,21.00
2009,05,23,15,30,21.10
2009,05,23,15,31,21.20
2009,05,23,15,32,21.30
2009,05,23,15,33,21.20
2009,05,23,15,34,21.20
2009,05,23,15,35,21.20
2009,05,23,15,36,21.20
2009,05,23,15,37,21.20
2009,05,23,15,38,21.20
2009,05,23,15,39,21.10
2009,05,23,15,40,21.10
2009,05,23,15,41,21.10
2009,05,23,15,42,21.10
2009,05,23,15,43,21.10
2009,05,23,15,44,21.10
2009,05,23,15,45,21.00
2009,05,23,15,46,21.00
2009,05,23,15,47,21.00
2009,05,23,15,48,21.00
2009,05,23,15,49,21.00
2009,05,23,15,50,21.00
2009,05,23,15,51,21.10
2009,05,23,15,52,21.00
2009,05,23,15,53,20.90
2009,05,23,15,54,20.90
2009,05,23,15,55,20.90
2009,05,23,15,56,20.90
2009,05,23,15,57,21.00
2009,05,23,15,58,21.10
2009,05,23,15,59,21.20
2009,05,23,16,00,21.20
2009,05,23,16,01,21.20
2009,05,23,16,02,21.20
2009,05,23,16,03,21.20
2009,05,23,16,04,21.10
2009,05,23,16,05,21.10
2009,05,23,16,06,21.10
2009,05,23,16,07,21.20
2009,05,23,16,08,21.10
2009,05,23,16,09,21.00
2009,05,23,16,10,21.00
2009,05,23,16,11,21.00
2009,05,23,16,12,21.10
2009,05,23,16,13,21.20
2009,05,23,16,14,21.20
2009,05,23,16,15,21.20
2009,05,23,16,16,21.00
2009,05,23,16,17,20.80
2009,05,23,16,18,20.70
2009,05,23,16,19,20.70
2009,05,23,16,20,20.70
2009,05,23,16,21,20.80
2009,05,23,16,22,20.80
2009,05,23,16,23,20.80
2009,05,23,16,24,20.80
2009,05,23,16,25,20.80
2009,05,23,16,26,20.90
2009,05,23,16,27,20.90
2009,05,23,16,28,21.00
2009,05,23,16,29,21.00
2009,05,23,16,30,21.00
2009,05,23,16,31,21.00
2009,05,23,16,32,21.00
2009,05,23,16,33,21.00
2009,05,23,16,34,21.00
2009,05,23,16,35,20.90
2009,05,23,16,36,20.90
2009,05,23,16,37,20.90
2009,05,23,16,38,20.90
2009,05,23,16,39,20.90
2009,05,23,16,40,20.90
2009,05,23,16,41,20.90
2009,05,23,16,42,20.80
2009,05,23,16,43,20.80
2009,05,23,16,44,20.80
2009,05,23,16,45,20.70
2009,05,23,16,46,20.70
2009,05,23,16,47,20.80
2009,05,23,16,48,20.70
2009,05,23,16,49,20.70
2009,05,23,16,50,20.80
2009,05,23,16,51,20.80
2009,05,23,16,52,20.80
2009,05,23,16,53,20.80
2009,05,23,16,54,20.70
2009,05,23,16,55,20.60
2009,05,23,16,56,20.50
2009,05,23,16,57,20.50
2009,05,23,16,58,20.50
2009,05,23,16,59,20.50
2009,05,23,17,00,20.60
2009,05,23,17,01,20.60
2009,05,23,17,02,20.50
2009,05,23,17,03,20.50
2009,05,23,17,04,20.50
2009,05,23,17,05,20.50
2009,05,23,17,06,20.50
2009,05,23,17,07,20.50
2009,05,23,17,08,20.50
2009,05,23,17,09,20.50
2009,05,23,17,10,20.40
2009,05,23,17,11,20.40
2009,05,23,17,12,20.40
2009,05,23,17,13,20.40
2009,05,23,17,14,20.30
2009,05,23,17,15,20.30
2009,05,23,17,16,20.30
2009,05,23,17,17,20.30
2009,05,23,17,18,20.30
2009,05,23,17,19,20.40
2009,05,23,17,20,20.50
2009,05,23,17,21,20.50
2009,05,23,17,22,20.50
2009,05,23,17,23,20.50
2009,05,23,17,24,20.60
2009,05,23,17,25,20.60
2009,05,23,17,26,20.50
2009,05,23,17,27,20.50
2009,05,23,17,28,20.50
2009,05,23,17,29,20.50
2009,05,23,17,30,20.50
2009,05,23,17,31,20.50
2009,05,23,17,32,20.40
2009,05,23,17,33,20.40
2009,05,23,17,34,20.40
2009,05,23,17,35,20.40
2009,05,23,17,36,20.40
2009,05,23,17,37,20.40